Location: De Har
(53.3413°N, 6.6858°E)
Time: 19:24:22
(UTC+00:00)

Cosmos 44 Rocket - Pass Details

Date: 22 April 2026
Orbit: 631 x 746 km, 65.1° (Epoch: 21 May)

Event Time Altitude Azimuth Distance (km) Brightness Sun altitude
Exits shadow 00:29:48 31° 124° (SE) 1,258 4.4 -23.4°
Maximum altitude 00:30:05 31° 118° (ESE) 1,254 4.5 -23.3°
Drops below altitude 10° 00:34:36 10° 57° (ENE) 2,256 6.6 -23.2°
Sets 00:37:13 0° 48° (NE) 3,192 7.7 -23.0°
